COSMOS 1639

Satellite information

Favourite Embed

Satellite Type and Status

PAYLOADIN ORBIT

Key statistics

Satellite COSMOS 1639 at a glance.

Uptime

14877

Days in orbit

Revolutions

≈ 12.5

Per day

Orbit

LEO

Low Earth Orbit

Inclination

74.1

Latest

Satellite identification and parameters

Extended collection of information and parameters for COSMOS 1639.

Object identification

Identified? True

Debris? False

Object name: COSMOS 1639

International designator: 1985-023E

Object number (NORAD): 15621

Object ID (CCSDS): 15621

Country: COMMONWEALTH OF INDEPENDENT STATES (CIS)

Current information (Y/N): Y

RCS size: MEDIUM

Orbital parameters

Period: 115.103 minutes

Inclination: 74.0539 deg

SMA: 7838.222 km

Apoapsis: 1479.764 km

Periapsis: 1440.41 km

RAAN: 216.19 deg

Eccentricy: 0.00251044

Argument of periapsis: 356.567 deg

Mean anomaly: 122.2441 deg

Mean motion: 12.51055035 rev/day

Mean motion (dot): -0.00000014 rev/day2

B* drag term: 0.000014778287 1/REarth

Two-line elements (TLE)

Creation date: Dec. 12, 2025, 10:14 a.m.

Reference frame: TEME

Reference center: EARTH

Epoch: Dec. 12, 2025, 2:55 a.m. UTC

TLE line 0: 0 COSMOS 1639

TLE line 1: 1 15621U 85023E 25346.12196531 -.00000014 00000-0 14778-4 0 9998

TLE line 2: 2 15621 74.0539 216.1900 0025104 356.5670 122.2441 12.51055035860117

Live tracking on map

Real-time ground track for satellite COSMOS 1639.

In-orbit conjunctions

There are no conjunctions computed for COSMOS 1639, at the moment. Check back to stay up to date, as we update our databases every day.

Go to all conjunctions

Associated space launch

Military communications satellites

COSMOS 1639 was lifted into orbit during the mission ‘Kosmos-3M | Strela-1M 289-296’, on board a Kosmos-3M space rocket.

The launch took place on March 21, 1985, 12:08 a.m. from 132/2.

For more information about the launch, click the button.

Launch to space Kosmos-3M | Strela-1M 289-296
Kosmos-3M | Strela-1M 289-296

Agency: N/A

Status: Launch Successful

Launch date: March 21, 1985, 12:08 a.m. UTC

Rocket: Kosmos-3M

Launch pad: 132/2

Location: Plesetsk Cosmodrome, Russian Federation

...

Latest news about this satellite

There are no fresh news available about this satellite. Check back as we update our databases every day.


Newsletter sign-up

Weekly statistics, charts and insights to help you stay on top of the space industry.